Regional Weather Roundup
Issued by NWS Sterling, VA

Home | Current Version | Previous Version | Text Only | Print | Product List | Glossary Off
Versions: 1 2 3 4 5 6 7 8 9 10 11 12 13 14 15 16 17 18 19 20 21 22 23 24 25 26 27 28

000
ASUS41 KLWX 242010
RWRLWX

REGIONAL WEATHER ROUNDUP
NATIONAL WEATHER SERVICE BALTIMORE MD/WASHINGTON DC
400 PM EDT TUE MAY 24 2016

Note: "FAIR" indicates few or no clouds below 12,000 feet
with no significant weather and/or obstructions to visibility.
 TC=TEMPERATURE CELSIUS

 * =Non NWS site. Station does not report precipitation (e.g. rain,
    snow, etc.), thunder, or fog.

DCZ001-MDZ009-015-VAZ040>042-051-053>054-242100-
WASHINGTON METRO

CITY           SKY/WX    TMP DP  RH WIND       PRES   REMARKS
WASHINGTON NAT FAIR      83  49  30 NW15G24   29.99S
DULLES         FAIR      82  50  32 W7        29.99F
ANDREWS AFB    SUNNY     81  47  30 NW14G28   29.98S
FT BELVOIR     FAIR      83  48  29 NW15      29.99S
QUANTICO       FAIR      83  50  31 N9        30.00S
COLLEGE PARK*  FAIR      81  45  28 NW8       29.98S
LEESBURG*      FAIR      81  54  39 NW7       30.00F
MANASSAS*      SUNNY     82  48  30 NW10      30.00S

$$

MDZ006>007-011-014-242100-
BALTIMORE METRO

CITY           SKY/WX    TMP DP  RH WIND       PRES   REMARKS
BWI AIRPORT    PTSUNNY   81  48  31 W18G25    29.96S
MD SCIENCE CTR   N/A     82  47  29 MISG      29.95F
MARTIN STATE   MOSUNNY   82  52  34 NW10      29.96S
ANNAPOLIS      SUNNY     79  46  31 NW12      29.96S
FORT MEADE*    MOSUNNY   79  48  34 NW10G18   29.99S

$$

MDZ012-015-019>023-242100-
MARYLAND EASTERN SHORE

CITY           SKY/WX    TMP DP  RH WIND       PRES   REMARKS
OCEAN CITY     MOSUNNY   77  54  44 NW7       29.98S
SALISBURY      SUNNY     79  50  36 NW8       29.98S
BAY BRIDGE AP* SUNNY     81  50  34 SW3       29.97R
CAMBRIDGE*     SUNNY     77  54  44 SW6       29.98S
EASTON*        MOSUNNY   81  57  44 W6        30.01S

$$

MDZ017>025-242100-
SOUTHERN MARYLAND

CITY           SKY/WX    TMP DP  RH WIND       PRES   REMARKS
PATUXENT RIVER PTSUNNY   76  56  49 SE8       29.99S
ST INIGOES     SUNNY     80  52  37 W12       29.99S
LEONARDTOWN*   MOSUNNY   81  46  30 W12       30.01R

$$

MDZ003>005-242100-
NORTH CENTRAL MARYLAND

CITY           SKY/WX    TMP DP  RH WIND       PRES   REMARKS
FREDERICK*     NOT AVBL
HAGERSTOWN APT SUNNY     82  41  23 W17G23    29.98F
WESTMINSTER*   MOSUNNY   81  75  83 W10G16    29.98F

$$

MDZ501>502-242100-
WESTERN MARYLAND

CITY           SKY/WX    TMP DP  RH WIND       PRES   REMARKS
OAKLAND*       NOT AVBL
CUMBERLAND*    SUNNY     81  46  30 W12G17    30.07S

$$

VAZ025>031-242100-
SHENANDOAH VALLEY

CITY           SKY/WX    TMP DP  RH WIND       PRES   REMARKS
WINCHESTER*    PTSUNNY   79  48  34 NW7       30.01F
FRONT ROYAL*   FAIR      81  52  36 W7        30.01S
LURAY*         FAIR      81  48  32 NW12G20   30.03S
NEW MARKET*    MOCLDY    80  50  34 W6        30.02S
STAUNTON*      FAIR      77  47  35 N3        30.07S
WAYNESBORO*    CLOUDY    75  51  43 SW3       30.07S

$$

WVZ021-048>050-054>055-242100-
EASTERN WEST VIRGINIA PANHANDLE

CITY           SKY/WX    TMP DP  RH WIND       PRES   REMARKS
MARTINSBURG    FAIR      82  45  27 W16G23    29.99S
PETERSBURG*    FAIR      80  53  39 NW10G17   30.06S

$$

VAZ036>039-050-242100-
CENTRAL FOOTHILLS

CITY           SKY/WX    TMP DP  RH WIND       PRES   REMARKS
CHARLOTTESVILL FAIR      83  51  33 VRB5      30.03S
CULPEPER*      FAIR      83  51  33 W7        30.01S
ORANGE*        PTSUNNY   81  46  30 SW12      30.04R
GORDONSVILLE*  FAIR      82  49  32 W3        30.02S
WARRENTON*     FAIR      84  40  21 W5        30.00S

$$

VAZ055>057-242100-
NORTH AND CENTRAL PIEDMONT

CITY           SKY/WX    TMP DP  RH WIND       PRES   REMARKS
FREDERICKSBRG* FAIR      81  52  36 W6        30.00S
STAFFORD*      FAIR      80  47  31 NW8       30.05S

$$

NCZ024-NYZ072-PAZ021-071-VAZ022-071-242100-
OTHER REGIONAL OBSERVATIONS

CITY           SKY/WX    TMP DP  RH WIND       PRES   REMARKS
NEW YORK CITY  CLOUDY    71  51  49 NE7       29.93S
PHILADELPHIA   PTSUNNY   82  44  26 NW16G22   29.91S
PITTSBURGH     MOSUNNY   79  44  28 NW12      30.06S
ROANOKE        FAIR      80  50  34 NW13      30.10F
RICHMOND       FAIR      82  51  34 MISG      30.02F
RALEIGH        MOSUNNY   82  51  34 CALM      30.09F

$$

ANZ530>537-242100-
MARINE OBSERVATIONS

STATION/POSITION TIME  TEMP    WIND        PRES
                       AIR SEA DIR/SP/G
                 (UTC) (F)     (DEG/KT/KT) (MB)
THOMAS PT LIGHT  2000   72 63  200/ 11/ 11 1016.0S
BALT KEY BRIDGE  1900   79     290/ 10/ 11 1014.1F
COVE POINT       1900   72     130/  1/  3 1016.0F
LEWISETTA        1900   77 64  320/ 12/ 15 1015.5F
SOLOMONS ISLAND  1900   78 63  340/  5/  7   N/A
PINEY POINT      1900          310/ 12/ 13   N/A

$$





USA.gov is the U.S. government's official web portal to all federal, state and local government web resources and services.